Regional Weather Roundup
Issued by NWS Lake Charles, LA

Home | Current Version | Previous Version | Text Only | Print | Product List | Glossary On
Versions: 1 2 3 4 5 6 7 8 9 10 11 12 13 14 15 16 17 18 19 20 21 22 23 24 25 26 27 28 29 30 31 32 33 34 35 36 37 38 39 40 41 42 43 44 45 46 47 48 49 50
000
ASUS44 KLCH 020010
RWRLCH
RWRLCH
REGIONAL WEATHER ROUNDUP
NATIONAL WEATHER SERVICE LAKE CHARLES LA
700 PM CDT FRI AUG 01 2014

Note: "fair" indicates few or no clouds below 12,000 feet with no
significant weather and/or obstructions to visibility.


ACROSS SOUTHEAST TEXAS

CITY           SKY/WX    TMP DP  RH WIND       PRES   REMARKS
BEAUMONT       CLOUDY    83  72  69 NW7       29.91S
BEAUMONT CITY  CLOUDY    81  74  78 NW7       29.92S
ORANGE         CLOUDY    82  73  74 CALM      29.93S
JASPER         CLOUDY    75  69  82 N6        29.97S HAZE
$$

ACROSS CENTRAL LOUISIANA

CITY           SKY/WX    TMP DP  RH WIND       PRES   REMARKS
LEESVILLE      MOSUNNY   79  71  76 NW14      29.93R
FULLERTON      CLOUDY    81  72  74 VRB6      29.91R
ALEXANDRIA INT LGT RAIN  80  74  81 N8        29.91R
ESLER FIELD    PTSUNNY   79  76  90 CALM      29.92S
DERIDDER         N/A     80  72  76 NW10      29.95R
OAKDALE        CLOUDY    83  75  76 CALM      29.91S
OPELOUSAS      MOCLDY    79  76  90 SE8       29.92S THUNDER
$$

ACROSS SOUTHWEST AND SOUTH CENTRAL LOUISIANA

CITY           SKY/WX    TMP DP  RH WIND       PRES   REMARKS
SULPHUR        MOCLDY    84  73  69 NW3       29.92F HAZE
LAKE CHARLES   PTSUNNY   84  72  67 W3        29.91S
CHENNAULT INT  MOSUNNY   84  70  61 VRB7      29.92S
CAMERON PHI    MOCLDY    82  75  78 CALM      29.92R
DEQUINCY         N/A     83  73  71 NW8       29.91S
JENNINGS         N/A     78  76  95 S5        29.92S
LAFAYETTE      HVY RAIN  77  74  90 SW10      29.94R FOG
NEW IBERIA     CLOUDY    82  73  74 S6        29.94R
ABBEVILLE      LGT RAIN  81  75  83 SE6       29.92S
PATTERSON      MOSUNNY   81  75  83 SE3       29.98S
SALT POINT       N/A     84  75  74 SE3       29.93S
$$

SELECTED SITES ACROSS THE REGION

CITY           SKY/WX    TMP DP  RH WIND       PRES   REMARKS
HOUSTON BUSH   MOSUNNY   83  69  62 N13       29.92F
HOUSTON HOBBY  PTSUNNY   86  67  52 NW12      29.91S
GALVESTON      CLOUDY    79  77  94 W5        29.91S
COLLEGE STAT   CLOUDY    78  68  71 NE14      29.97F
CONROE         MOSUNNY   79  70  74 N9        29.96S
HUNTSVILLE     LGT RAIN  77  68  73 VRB5      29.98R
LUFKIN         CLOUDY    75  68  78 N6        29.97F
SHREVEPORT     CLOUDY    71  67  87 N8        29.97F
MONROE         LGT RAIN  72  70  94 NE7       29.97F VSB 1
NATCHEZ MS     CLOUDY    73  70  88 SE12      29.97R
BATON ROUGE    PTSUNNY   79  73  82 E6        29.95S
N.O. INTL ARPT PTSUNNY   85  67  54 S7        29.96S
SLIDELL        PTSUNNY   81  68  64 E3        29.96S
$$

MARINE REPORTS

STATION/POSITION TIME  TEMP    WIND        PRES    VSBY  WAVE
                       AIR SEA DIR/SP/G                  HT/PER
                 (UTC) (F)     (DEG/KT/KT) (MB)    (MI)  (FT/S)
BUOY 30 S HIGH I 2300   84 87  250/ 12/ 14 1012.8
SEA RIM ST PARK  0000   82     350/  8/ 10 1013.4S
PORT ARTHUR      0000      87  340/  8/ 12 1012.9S
SABINE PASS N    0000   84 87  330/  7/ 11 1013.0R
TEXAS POINT      0000   83 87  310/  7/ 10 1013.0S
CALCASIEU PASS   0000   82 86  260/  6/  9 1014.2R
LK CHARLES BEACH 0000   84 84              1013.6R
MARSH ISLAND     2300   83     160/  8/ 10   N/A
FRESH WATER LOCK 0000   83 86  160/  8/  9 1013.2R
AMERADA PASS     0000   81 85  130/  3/  5 1013.9R
$$



USA.gov is the U.S. government's official web portal to all federal, state and local government web resources and services.